STARLINK-1733, 46564

Orbit data source: Space-Track

STARLINK-1733, 46564 is a payload satellite owned by SpaceX/Seattle (US) in LEO that was launched on Tue, 06 Oct 2020 UTC via an FALCON 9 launch vehicle from the Air Force Eastern Test Range (AFETR). Payload-class satellites include a variety of spacecraft equipped with specific instruments for various scientific and technological missions. These include communications satellites like Starlink; space stations such as the ISS; scientific satellites like the Hubble; Earth observation satellites from companies like Planet Labs, Umbra, and HawkEye 360; GPS; miniature CubeSats for education and research; and military/defense satellites.

Loading next visibility...
Identifier
46564, 2020-070AJ
Orbit
LEO
Last TLE update
18 hours ago
Origin
Manufacturer
SpaceX/Seattle
Mission
Operational Commercial Communications
Bus & Motor
STARLINK, Unknown motor
Mass
260 kg wet, ~248 kg dry
Launch date (UTC)
2020-10-06 (5 years ago)
Launch vehicle
FALCON 9
Launch site
Air Force Eastern Test Range (AFETR)
Object type
Payload
Rocket body
Debris
Shape & HBR
Box + 1 Pan, 8.86 m
Radar Cross Section
13.562 m², Large (>1 m²)

Expand to show TLE details & history

TLE from 18 hours ago
0 STARLINK-1733
1 46564U 20070AJ  25181.48257851  .00000919  00000-0  80590-4 0  9996
2 46564  53.0541 208.8962 0001057  83.9736 276.1373 15.06396173261772
Epoch: 2025-06-30T11:34Z
TLE epoch observation values (Epoch: 2025-06-30T11:34:54.783Z)
Latitude
-0.00004°
Longitude
116.37616°
Altitude
548.024 km
Speed
7.589 km/s
True Right ascension
13h 55m 35s
True Declination
0° 00' 00"
Sunlit
Object was in daylight at epoch
Visualization orbit readout
Latitude
-26.78105°
Longitude
-44.89849°
Altitude
555.575 km
Speed
7.584 km/s
Apparent Right ascension
04h 16m 20s
Apparent Declination
-34° 19' 23"
Sunlit
Object is in daylight
Visualization observer readout
Local Sidereal Time
17:40:20
Azimuth
78.119° E
Elevation
-72.395°
Doppler factor
1
Orbital elements
Apogee altitude
548.226 km
Perigee altitude
546.762 km
Semi-major axis
6,925.631 km
Eccentricity
0.00011
Inclination
53.0541°
RAAN
208.8962°
Arg. of periapsis
83.9736°
True anomaly
Unknown
Mean anomaly
276.1373°
Eccentric anomaly
Unknown
Mean motion
3.76577 °/min
Orbital period
95.6 mins
BSTAR
0.00008059
Loading maneuver chart data...
Loading SW <> Apogee altitude chart data...
Loading historical data...
Loading historical data...
Loading historical data...
Loading historical data...
Loading historical data...
Loading historical data...
Loading historical data...

STARLINK-1733 Visibility forecast

Observer location: undefined°, undefined°

Span
Click to sort rows by Start time (UTC) header in descending order
Start Az.
Max El. time (UTC)
Max El. Az.
Max El.
End time (UTC)
End Az.
4 mins2025-07-01 06:59:37.231Z310.001° NW2025-07-01 07:01:37.231Z339.548° N14.774°2025-07-01 07:03:37.231Z12.783° NNE
5 mins2025-07-01 10:21:37.231Z342.7° N2025-07-01 10:23:37.231Z33.643° NE28.459°2025-07-01 10:26:37.231Z90.722° ESE
6 mins2025-07-01 12:00:37.231Z286.737° WNW2025-07-01 12:02:37.231Z244.119° WSW32°2025-07-01 12:06:37.231Z158.432° S
6 mins2025-07-02 03:33:37.231Z188.463° SSW2025-07-02 03:35:37.231Z143.309° SSE30.721°2025-07-02 03:39:37.231Z65.47° ENE
5 mins2025-07-02 05:13:37.231Z282.042° WNW2025-07-02 05:15:37.231Z335.907° NNW29.534°2025-07-02 05:18:37.231Z32.723° NE
|